timestamp,surface_pressure_avg,surface_temp_avg,battery_voltage,lat,long
2022-05-01 00:09:00+00:00,367.9779,3.7,11.93,47.84626,-54.09684
2022-05-01 00:19:01+00:00,368.6213,3.6,11.93,47.84626,-54.09684
2022-05-01 00:29:01+00:00,363.3663,3.6,11.93,47.84626,-54.09684
2022-05-01 00:39:01+00:00,360.1564,3.5,11.93,47.84626,-54.09684
2022-05-01 00:49:01+00:00,359.5297,3.51,11.93,47.84626,-54.09684
2022-05-01 00:59:01+00:00,355.3263,3.77,11.93,47.84626,-54.09684
2022-05-01 01:09:01+00:00,347.4463,4.1,11.93,47.84626,-54.09684
2022-05-01 01:19:00+00:00,344.4529,3.9,11.93,47.84626,-54.09684
2022-05-01 01:29:00+00:00,344.1995,3.69,11.93,47.84626,-54.09684
2022-05-01 01:39:00+00:00,338.6897,3.7,11.93,47.84626,-54.09684
2022-05-01 01:49:00+00:00,330.2030000000001,3.6,11.93,47.84626,-54.09684
2022-05-01 01:59:00+00:00,326.5597,3.59,11.93,47.84626,-54.09684
2022-05-01 02:09:00+00:00,322.743,3.6,11.93,47.84626,-54.09684
2022-05-01 02:19:01+00:00,311.7313,3.6,11.93,47.84626,-54.09684
2022-05-01 02:29:01+00:00,303.4263,3.5,11.93,47.84626,-54.09684
2022-05-01 02:39:01+00:00,298.3797,3.5,11.93,47.84626,-54.09684
2022-05-01 02:49:01+00:00,289.3647,3.56,11.93,47.84626,-54.09684
2022-05-01 02:59:01+00:00,277.2764,3.7,11.93,47.84626,-54.09684
2022-05-01 03:09:01+00:00,270.7797,3.7,11.93,47.84626,-54.09684
2022-05-01 03:19:00+00:00,266.5581,3.7,11.93,47.84626,-54.09684
2022-05-01 03:29:00+00:00,255.5064,3.96,11.93,47.84626,-54.09684
2022-05-01 03:39:00+00:00,243.2131,4.48,11.93,47.84626,-54.09684
2022-05-01 03:49:00+00:00,237.0497,4.5,11.93,47.84626,-54.09684
2022-05-01 03:59:00+00:00,229.5131,4.32,11.93,47.84626,-54.09684
2022-05-01 04:09:00+00:00,216.9865,4.3,11.93,47.84626,-54.09684
2022-05-01 04:19:01+00:00,206.9564,4.3,11.93,47.84626,-54.09684
2022-05-01 04:29:01+00:00,201.4681,4.3,11.93,47.84626,-54.09684
2022-05-01 04:39:01+00:00,194.3482,4.3,11.93,47.84626,-54.09684
2022-05-01 04:49:01+00:00,187.5298,4.4,11.93,47.84626,-54.09684
2022-05-01 04:59:01+00:00,185.5331,4.4,11.93,47.84626,-54.09684
2022-05-01 05:09:01+00:00,182.7415,4.4,11.93,47.84626,-54.09684
2022-05-01 05:19:00+00:00,178.1531,4.5,11.93,47.84626,-54.09684
2022-05-01 05:29:00+00:00,177.5965,4.59,11.93,47.84626,-54.09684
2022-05-01 05:39:00+00:00,178.0598,4.7,11.93,47.84626,-54.09684
2022-05-01 05:49:00+00:00,176.6914,4.79,11.93,47.84626,-54.09684
2022-05-01 05:59:00+00:00,178.5715,4.7,11.93,47.84626,-54.09684
2022-05-01 06:09:00+00:00,182.1765,4.6,11.93,47.84626,-54.09684
2022-05-01 06:19:01+00:00,181.3582,4.56,11.93,47.84626,-54.09684
2022-05-01 06:29:01+00:00,181.2748,4.5,11.93,47.84626,-54.09684
2022-05-01 06:39:01+00:00,186.7948,4.5,11.93,47.84626,-54.09684
2022-05-01 06:49:01+00:00,192.5932,4.5,11.93,47.84626,-54.09684
2022-05-01 06:59:01+00:00,195.9965,4.59,11.93,47.84626,-54.09684
2022-05-01 07:09:01+00:00,200.0015,4.7,11.93,47.84626,-54.09684
2022-05-01 07:19:00+00:00,206.6431,4.7,11.93,47.84626,-54.09684
2022-05-01 07:29:00+00:00,211.7631,4.6,11.93,47.84626,-54.09684
2022-05-01 07:39:00+00:00,214.6181,4.6,11.93,47.84626,-54.09684
2022-05-01 07:49:00+00:00,220.0281,4.5,11.93,47.84626,-54.09684
2022-05-01 07:59:00+00:00,225.6664,4.5,11.93,47.84626,-54.09684
2022-05-01 08:09:00+00:00,228.8498,4.5,11.93,47.84626,-54.09684
2022-05-01 08:19:01+00:00,232.1097,4.5,11.93,47.84626,-54.09684
2022-05-01 08:29:01+00:00,237.8214,4.5,11.93,47.84626,-54.09684
2022-05-01 08:39:01+00:00,244.7114,4.5,11.93,47.84626,-54.09684
2022-05-01 08:49:01+00:00,249.9681,4.5,11.93,47.84626,-54.09684
2022-05-01 08:59:01+00:00,255.3897,4.53,11.93,47.84626,-54.09684
2022-05-01 09:09:01+00:00,260.3281,4.58,11.93,47.84626,-54.09684
2022-05-01 09:19:00+00:00,267.3147,4.6,11.93,47.84626,-54.09684
2022-05-01 09:29:00+00:00,271.5364,4.6,11.93,47.84626,-54.09684
2022-05-01 09:39:00+00:00,276.6397,4.6,11.93,47.84626,-54.09684
2022-05-01 09:49:00+00:00,281.5364,4.63,11.93,47.84626,-54.09684
2022-05-01 09:59:00+00:00,290.033,4.67,11.93,47.84626,-54.09684
2022-05-01 10:09:00+00:00,296.2964,4.69,11.93,47.84626,-54.09684
2022-05-01 20:19:01+00:00,247.7798,5.12,11.93,47.84626,-54.09684
2022-05-01 20:29:01+00:00,253.7214,5.1,11.93,47.84626,-54.09684
2022-05-01 20:39:01+00:00,258.8097,5.11,11.93,47.84626,-54.09684
2022-05-01 20:49:01+00:00,263.0964,5.14,11.93,47.84626,-54.09684
2022-05-01 20:59:01+00:00,268.6448,5.17,11.93,47.84626,-54.09684
2022-05-01 21:09:01+00:00,276.9148,5.19,11.93,47.84626,-54.09684
2022-05-01 22:19:01+00:00,315.6096,5.49,11.93,47.84626,-54.09684
2022-05-01 22:29:01+00:00,323.3596,5.5,11.93,47.84626,-54.09684
2022-05-01 22:39:01+00:00,330.4363,5.5,11.93,47.84626,-54.09684
2022-05-01 22:49:01+00:00,338.3864,5.5,11.93,47.84626,-54.09684
2022-05-01 22:59:01+00:00,344.088,5.5,11.93,47.84626,-54.09684
2022-05-01 23:09:01+00:00,350.6879,5.5,11.93,47.84626,-54.09684
2022-05-01 23:19:00+00:00,356.7762,5.5,11.93,47.84626,-54.09684
2022-05-01 23:29:00+00:00,361.5446,5.5,11.93,47.84626,-54.09684
2022-05-01 23:39:00+00:00,363.2279,5.5,11.93,47.84626,-54.09684
2022-05-01 23:49:00+00:00,366.8746,5.41,11.93,47.84626,-54.09684
2022-05-01 23:59:00+00:00,370.5462,5.4,11.93,47.84626,-54.09684
